CDT,Max TemperatureF,Mean TemperatureF,Min TemperatureF,Max Dew PointF,MeanDew PointF,Min DewpointF,Max Humidity, Mean Humidity, Min Humidity, Max Sea Level PressureIn, Mean Sea Level PressureIn, Min Sea Level PressureIn, Max VisibilityMiles, Mean VisibilityMiles, Min VisibilityMiles, Max Wind SpeedMPH, Mean Wind SpeedMPH, Max Gust SpeedMPH,PrecipitationIn, CloudCover, Events, WindDirDegrees
2013-9-1,77,68,58,58,56,53,90,68,46,30.13,30.07,30.01,10,10,10,14,4,16,0.00,6,,38
2013-9-2,89,70,50,57,54,47,89,59,29,30.05,29.97,29.88,10,10,10,14,5,16,0.00,0,,137
2013-9-3,95,76,57,62,57,52,93,58,23,30.02,29.93,29.89,10,9,2,10,2,13,0.00,0,,85
2013-9-4,83,73,63,60,58,55,90,68,45,30.15,30.09,30.04,10,10,10,16,9,21,T,2,,103
2013-9-5,94,80,66,65,61,55,73,55,36,30.07,29.98,29.87,10,10,10,14,4,18,0.00,0,,148
2013-9-6,94,80,65,67,62,57,87,59,30,29.94,29.90,29.86,10,10,10,17,6,23,0.02,0,Rain,314
2013-9-7,78,70,61,65,59,51,90,67,43,30.18,30.07,29.94,10,8,1,31,12,39,1.23,5,Rain-Thunderstorm,54
2013-9-8,72,66,60,63,59,54,90,79,68,30.04,29.93,29.78,10,10,10,12,4,14,0.00,6,,34
2013-9-9,78,67,55,61,59,52,93,69,45,29.89,29.79,29.73,10,10,7,38,9,49,0.07,6,Rain-Thunderstorm,311
2013-9-10,81,67,53,57,52,48,100,67,33,30.05,29.96,29.89,10,10,10,23,7,29,0.00,0,,273
2013-9-11,79,65,50,55,46,41,89,58,27,30.29,30.17,30.06,10,10,9,14,4,18,0.00,0,,3
2013-9-12,76,58,40,48,44,40,92,62,31,30.38,30.30,30.17,10,10,7,9,2,12,0.00,0,,101
2013-9-13,85,66,47,56,50,44,86,59,32,30.15,29.95,29.78,10,10,10,16,5,22,0.00,0,,157
2013-9-14,77,64,51,60,53,45,93,66,38,30.13,29.86,29.73,10,10,6,26,8,32,0.00,0,Rain,40
2013-9-15,69,56,42,47,43,38,89,61,32,30.34,30.26,30.15,10,10,10,14,7,20,0.00,1,,107
2013-9-16,79,65,50,54,50,43,83,63,42,30.21,29.99,29.80,10,10,10,23,10,30,0.00,0,,158
2013-9-17,87,72,56,61,56,52,86,62,37,29.78,29.68,29.59,10,9,2,25,5,33,0.15,0,Rain,175
2013-9-18,79,68,56,64,58,54,93,72,50,29.75,29.61,29.55,10,9,2,23,5,30,0.15,4,Rain,317
2013-9-19,57,48,39,54,45,38,93,80,66,30.11,29.94,29.74,10,10,6,25,13,32,T,7,Rain,303
2013-9-20,68,52,35,46,38,34,100,65,30,30.12,30.05,29.94,10,9,1,7,2,10,0.00,0,,171
2013-9-21,76,57,38,48,42,34,85,59,33,29.93,29.77,29.61,10,10,10,21,8,29,0.00,0,,137
2013-9-22,74,60,45,54,49,42,86,66,46,29.61,29.52,29.47,10,10,10,18,5,22,0.00,0,,50
2013-9-23,70,58,45,53,47,36,93,65,37,29.80,29.62,29.47,10,10,10,17,7,22,T,3,Rain,282
2013-9-24,72,56,40,43,38,35,76,52,27,29.94,29.85,29.70,10,10,10,18,6,24,0.00,0,,184
2013-9-25,69,62,54,49,46,41,67,55,43,29.67,29.61,29.56,10,10,9,24,10,36,T,1,Rain-Thunderstorm,183
2013-9-26,57,50,43,52,46,38,96,81,66,29.95,29.68,29.58,10,10,2,26,11,33,0.23,7,Rain,278
2013-9-27,54,49,43,42,40,37,89,74,59,29.96,29.90,29.85,10,10,10,10,6,13,0.00,4,,264
2013-9-28,66,52,37,39,36,32,92,61,30,29.84,29.79,29.73,10,10,10,24,8,30,0.00,3,,241
2013-9-29,77,58,38,44,38,33,85,55,24,29.73,29.59,29.48,10,10,10,21,7,30,0.00,3,,234
2013-9-30,75,56,37,44,39,34,85,58,31,29.63,29.54,29.42,10,10,9,36,8,45,T,2,Rain,219